Dalhart, TX

12:31 PM CDT on July 27, 2017 (GMT -0500)
Dalhart Municipal

Weather History for KDHT - October, 2012

Change the Weather History Date:

Wednesday, October 3, 2012

  Actual Average Record
Temperature  
Mean Temperature 66 °F 60 °F  
Max Temperature 88 °F 75 °F 96 °F (2000)
Min Temperature 44 °F 45 °F 37 °F (1996)
Degree Days  
Heating Degree Days 0 6  
Month to date heating degree days 8 16  
Since 1 July heating degree days 34 79  
Cooling Degree Days 1 1  
Month to date cooling degree days 1 3  
Year to date cooling degree days 1643 1131  
Growing Degree Days 17 (Base 50)    
Moisture  
Dew Point 46 °F    
Average Humidity 56    
Maximum Humidity 93    
Minimum Humidity 18    
Precipitation  
Precipitation 0.00 in 0.05 in 1.22 in (2015)
Month to date precipitation 0.00 0.15  
Year to date precipitation 6.33 15.15  
Snow  
Snow 0.00 in 0.00 in 0.00 in ()
Month to date snowfall 0.0 0.0  
Since 1 July snowfall 0.0 0.0  
Since 1 September snowfall 0.0 0.0  
Snow Depth 0.00 in    
Sea Level Pressure  
Sea Level Pressure 29.79 in    
Wind  
Wind Speed 10 mph (South)    
Max Wind Speed 20 mph    
Max Gust Speed 24 mph    
Visibility 9 miles    
Events      
T = Trace of Precipitation, MM = Missing Value Source: NWS Daily Summary

Daily Weather History Graph

Daily Weather History Graph

Search for Another Location

Airport or City:

Trip Planner

Search our weather history database for the weather conditions in past years. The results will help you decide how hot, cold, wet, or windy it might be!

Date:

Astronomy

Oct. 03, 2012 Rise Set
Actual Time 7:47 AM CDT 7:30 PM CDT
Civil Twilight 7:21 AM CDT 7:55 PM CDT
Nautical Twilight 6:52 AM CDT 8:25 PM CDT
Astronomical Twilight 6:22 AM CDT 8:55 PM CDT
Moon 9:31 PM CDT (10/3) 11:05 AM CDT (10/3)
Length of Visible Light 12h 34m
Length of Day
11h 42m
Waning Gibbous, 88% of the Moon is Illuminated
Oct 3
Waning Gibbous
Oct 8
Last Quarter
Oct 15
New
Oct 21
First Quarter
Oct 29
Full

Hourly Weather History & Observations

Time (CDT) Temp. Windchill Dew Point Humidity Pressure Visibility Wind Dir Wind Speed Gust Speed Precip Events Conditions
12:53 AM 54.0 °F - 46.0 °F 75% 29.83 in 10.0 mi South 6.9 mph - N/A   Clear
1:53 AM 54.0 °F - 46.9 °F 77% 29.81 in 10.0 mi South 11.5 mph - N/A   Clear
2:53 AM 54.0 °F - 48.0 °F 80% 29.81 in 10.0 mi South 8.1 mph - N/A   Clear
3:53 AM 54.0 °F - 48.0 °F 80% 29.80 in 10.0 mi South 10.4 mph - N/A   Clear
4:53 AM 53.1 °F - 48.0 °F 83% 29.78 in 10.0 mi South 10.4 mph - N/A   Clear
5:53 AM 48.9 °F - 46.0 °F 90% 29.81 in 8.0 mi SSW 5.8 mph - N/A   Clear
6:53 AM 46.0 °F 43.1 °F 44.1 °F 93% 29.82 in 6.0 mi SSW 5.8 mph - N/A   Clear
7:53 AM 46.0 °F 43.9 °F 44.1 °F 93% 29.84 in 3.0 mi SW 4.6 mph - N/A   Clear
8:53 AM 52.0 °F - 48.9 °F 89% 29.84 in 6.0 mi SW 6.9 mph - N/A   Clear
9:53 AM 60.1 °F - 50.0 °F 69% 29.84 in 8.0 mi WSW 6.9 mph - N/A   Clear
10:53 AM 68.0 °F - 50.0 °F 52% 29.81 in 10.0 mi SW 6.9 mph - N/A   Clear
11:53 AM 75.9 °F - 48.0 °F 37% 29.79 in 10.0 mi South 6.9 mph - N/A   Clear
12:53 PM 80.1 °F - 46.9 °F 31% 29.79 in 10.0 mi South 8.1 mph - N/A   Clear
1:53 PM 82.9 °F - 45.0 °F 26% 29.75 in 10.0 mi SW 9.2 mph - N/A   Clear
2:53 PM 84.0 °F - 43.0 °F 24% 29.73 in 10.0 mi South 13.8 mph - N/A   Clear
3:53 PM 86.0 °F - 41.0 °F 20% 29.72 in 10.0 mi SSW 12.7 mph - N/A   Clear
4:53 PM 88.0 °F - 39.0 °F 18% 29.71 in 10.0 mi South 12.7 mph - N/A   Clear
5:53 PM 86.0 °F - 39.9 °F 20% 29.72 in 10.0 mi South 15.0 mph - N/A   Clear
6:53 PM 82.0 °F - 46.9 °F 29% 29.75 in 10.0 mi South 18.4 mph - N/A   Clear
7:53 PM 75.9 °F - 45.0 °F 33% 29.77 in 10.0 mi SSE 12.7 mph - N/A   Clear
8:53 PM 73.0 °F - 46.0 °F 38% 29.78 in 10.0 mi SSE 12.7 mph - N/A   Clear
9:53 PM 69.8 °F - 48.2 °F 46% 29.92 in 10.0 mi SSE 13.8 mph - N/A   Clear
10:53 PM 66.0 °F - 48.0 °F 52% 29.81 in 10.0 mi South 10.4 mph - N/A   Clear
11:53 PM 62.1 °F - 48.0 °F 60% 29.81 in 10.0 mi South 11.5 mph - N/A   Clear